USA 164 (MILSTAR-2 3)

Last updated on Tue Oct 08 2024 00:02:37 GMT+0000 (Coordinated Universal Time)

1 27168U 02001A 24280.97618899 .00000113 00000+0 00000+0 0 9993 2 27168 10.4433 25.2858 0096923 1.3373 359.8293 1.00294517 26766
UTC large
Height (km)
Speed (km/s)
/
Latitude / Longitude
Inclination (degrees)
Orbital Period (minutes)
Azimuth
Elevation
Range (km)
Doppler Factor

Next 0 passes for location: London (51.5072 / 0.1276)

Sorry there are no passes over London.